SCP
0 0 0 0 0 0 0 0 0 0 0 0 0 0 0 0 0 0 0 0 0 0 0 0 0 0 0 0 0 0 0 0 0 0 0 0 0 0 0 0 0 0 0 0 0 0 0 0 0 0 0 0 0 0
0 0 0 0 0 0 0 0 0 0 0 0 0 0 0 0 0 0 0 0 0 0 0 0 0 0 0 0 0 0 0 0 0 0 0 0 0 0 0 0 0 0 0 0 0 0 0 0 0 0 0 0 0 0
0 0 0 0 0 0 0 0 0 0 0 0 0 0 0 0 0 0 0 0 0 -0 0 0 0 0 0 0 0 0 0 0 0 0 0 0 0 0 0 0 0 0 0 0 0 0 0 0 0 0 0 0 0 0
0 0 0 0 0 0 0 0 0 0 0 0 0 0 0 0 0 0 0 0 0 0 0 0 0 0 0 0 0 0 0 0 0 0 0 0 0 0 0 0 0 0 0 0 0 0 0 0 0 0 0 0 0 -0
0 0 0 0 0 0 0 0 0 0 0 0 0 0 0 0 0 0 0 0 -0 0 0 0 0 0 0 0 0 0 0 0 0 0 0 0 0 0 0 0 0 0 0 0 0 0 0 0 0 0 0 0 0 0
0 0 0 0 0 0 0 0 0 0 0 0 0 0 0 0 0 0 0 0 0 0 -0 -0 0 0 0 0 0 0 0 0 0 0 0 0 1 0 0 0 0 0 0 0 1 0 0 0 0 0 0 0 0 0
0 0 0 0 0 0 0 0 0 0 0 0 0 0 0 0 0 0 0 0 0 0 0 -0 -0 0 0 0 0 0 0 0 0 0 0 0 0 0 0 0 0 0 0 0 0 0 0 0 0 0 0 0 0 0
0 0 0 0 0 0 0 0 0 0 0 0 0 0 0 0 0 0 0 0 0 0 0 0 0 0 0 0 0 0 0 0 0 0 0 0 0 1 0 0 0 0 0 0 0 0 0 0 0 0 0 0 0 0
0 0 0 0 0 0 0 0 0 0 0 0 0 0 0 0 0 0 0 0 0 0 0 0 0 0 0 0 0 0 0 0 0 0 0 0 0 1 1 1 0 0 0 0 0 0 0 0 0 0 0 0 0 0
0 0 0 0 0 0 0 0 0 0 0 0 0 0 0 0 -0 0 0 0 0 0 0 0 0 0 0 0 0 0 0 0 0 0 0 0 1 0 0 0 0 0 0 0 0 0 0 0 0 0 0 0 0 0
0 0 0 0 0 0 0 0 0 0 0 0 0 0 0 0 0 0 0 0 0 0 0 0 0 0 0 0 0 0 0 0 0 0 0 0 0 0 0 0 0 0 0 0 0 0 0 0 0 0 0 0 0 0
0 0 0 0 0 0 0 0 0 0 0 0 0 0 0 0 0 0 0 0 0 0 0 0 0 0 0 0 0 0 0 0 0 0 0 0 0 0 0 0 0 0 0 0 0 0 0 0 0 0 0 0 0 0
0 0 0 0 0 0 0 0 0 0 0 0 0 0 0 0 0 0 0 0 0 0 -0 -0 0 0 0 0 0 0 0 0 0 0 0 0 0 0 0 0 0 0 0 0 0 0 0 0 0 0 0 0 0 0
0 0 0 0 0 0 0 0 0 0 0 0 0 0 0 0 0 0 0 0 -0 -0 -0 -0 -0 0 0 0 0 0 0 0 0 0 0 0 0 0 0 0 0 0 0 0 0 0 0 0 0 0 0 0 0 0
0 0 0 0 0 0 0 0 0 0 0 0 0 0 0 0 0 -0 -0 -0 -0 -0 -0 -0 0 -0 0 0 0 0 0 0 0 0 0 0 0 0 0 0 0 0 0 0 0 0 0 0 0 0 0 0 0 0
0 0 0 0 0 0 0 0 0 0 0 0 0 0 0 0 0 0 0 -0 -0 0 0 0 0 0 0 0 0 0 0 0 0 0 0 0 0 0 0 0 0 0 0 0 0 0 0 0 0 0 0 0 0 0
0 0 0 0 0 0 0 0 0 0 0 0 -0 0 0 0 0 0 0 -0 -0 -0 -0 0 0 0 0 0 0 0 0 0 0 0 0 0 0 0 0 0 0 0 0 0 0 0 0 0 0 0 0 0 0 0
0 0 0 0 0 0 0 0 0 0 -0 -0 0 0 0 0 0 0 -0 0 -0 0 0 0 0 0 0 -0 0 0 0 0 0 0 0 0 0 0 0 0 0 0 0 0 0 0 0 0 0 0 0 0 0 0
0 0 0 0 0 0 0 0 0 -0 0 0 0 0 0 0 0 0 0 -0 0 -0 -0 0 0 0 0 0 0 -0 0 0 0 0 0 0 0 0 0 0 0 0 -0 0 0 0 0 0 0 0 0 0 0 0
0 0 0 0 0 0 0 0 -0 -0 0 0 0 0 0 0 0 -0 0 0 0 -0 0 -0 0 0 0 0 0 0 0 0 0 0 0 -0 0 0 0 0 0 0 0 0 0 0 0 0 0 0 0 0 0 0
0 0 0 0 0 0 0 0 0 0 0 0 0 0 0 0 0 0 -0 -0 0 0 -0 0 0 0 0 0 0 0 -0 0 -0 0 0 0 -0 -0 -0 0 0 0 0 0 0 0 0 0 0 0 0 0 0 0
0 -0 0 0 0 0 -0 0 0 0 0 0 0 0 0 -0 -0 0 0 0 -0 -0 0 0 0 0 0 0 -0 0 -0 -0 0 0 0 -0 0 0 0 0 0 0 0 0 0 0 0 0 0 0 0 0 0 0
0 0 0 0 0 0 0 0 0 0 0 0 0 -0 -0 0 0 -0 0 -0 -0 -0 0 0 0 0 0 0 0 -0 -0 0 0 0 0 0 0 0 0 0 0 0 0 0 0 0 0 0 0 0 0 0 0 0
0 0 0 0 0 0 0 0 0 0 0 0 0 0 -0 -0 0 0 0 -0 0 0 0 0 0 0 0 0 0 0 0 0 0 0 0 0 0 0 0 0 0 0 0 0 0 0 0 0 0 0 0 0 0 0
0 0 0 0 0 0 0 0 0 0 0 0 0 -0 0 0 -0 -0 0 -0 0 -0 -0 -0 0 0 0 0 0 0 0 0 0 0 0 0 0 0 0 0 0 0 0 0 0 0 0 0 0 0 0 0 0 0
0 0 0 0 0 0 0 0 0 0 0 0 -0 -0 0 -0 -0 -0 0 0 -0 -0 -0 0 0 -0 0 0 0 0 0 0 0 0 0 0 0 0 0 0 0 0 0 0 0 0 0 0 0 0 0 0 0 0
0 0 0 0 0 0 0 -0 -0 -0 -0 -0 -0 -0 -0 -0 -0 -0 0 0 -0 0 0 0 0 0 0 0 0 0 0 0 0 0 0 0 0 0 0 0 0 0 0 0 0 0 0 0 0 0 0 0 0 0
0 0 0 0 0 -0 0 0 -0 0 0 0 0 -0 -0 -0 -0 0 0 0 0 0 -0 0 0 0 0 0 0 0 0 0 0 0 0 0 0 0 0 0 0 0 0 0 0 0 0 0 0 0 0 0 0 0
0 0 0 0 -0 -0 -0 0 0 -0 0 0 0 0 0 0 0 -0 0 0 0 -0 0 0 0 0 0 0 0 0 0 0 0 0 0 0 0 0 0 0 0 0 0 0 0 0 0 0 0 0 0 0 0 0
0 0 0 -0 0 0 0 0 0 0 0 0 0 0 0 0 -0 0 0 -0 -0 -0 -0 0 0 0 0 0 0 0 0 0 0 0 0 0 0 0 0 0 0 0 0 0 0 0 0 0 0 0 0 0 0 0
0 0 -0 0 0 0 0 0 0 0 -0 0 0 0 -0 -0 0 -0 -0 0 0 0 0 0 0 0 0 0 0 0 0 0 0 0 0 0 0 0 0 0 0 0 0 0 0 0 0 0 0 0 0 0 0 0
0 0 0 0 0 0 0 0 -0 -0 0 0 -0 -0 -0 -0 0 0 0 0 0 0 0 0 0 0 0 0 0 0 0 0 0 0 0 0 0 0 0 0 0 0 0 0 0 0 0 0 0 0 0 0 0 0
0 0 0 0 0 0 0 0 0 0 0 -0 -0 -0 -0 0 0 0 0 0 0 0 0 0 0 0 0 0 0 0 0 0 0 0 0 0 0 0 0 0 0 0 0 0 0 0 0 0 0 0 0 0 0 0
Wind_Speed_500mb
32 32 32 32 32 32 32 33 33 32 33 35 34 33 35 35 33 32 4 14 23 25 62 59 27 30 28 17 6 9 4 2 6 7 8 16 5 1 6 7 8 15 13 10 9 1 10 20 8 20 8 38 37 33
34 33 32 33 32 32 32 33 32 32 33 34 35 34 33 35 36 37 33 22 23 23 45 53 60 60 56 52 36 14 5 3 12 5 2 6 5 7 7 5 12 6 5 2 4 8 6 9 3 9 20 14 11 28
34 34 33 35 34 32 32 33 33 32 32 33 34 36 34 33 35 39 45 37 29 23 50 41 36 26 39 39 61 31 19 24 9 5 8 5 7 3 7 10 2 14 4 7 4 13 37 19 5 8 16 6 6 65
37 35 34 35 35 33 32 32 33 32 32 32 33 35 37 36 36 38 45 35 25 17 14 24 35 40 27 33 27 69 63 32 17 22 16 8 7 17 13 12 4 3 14 10 6 22 30 35 21 12 15 17 25 34
35 36 36 36 34 34 32 32 33 32 32 32 32 33 35 38 42 41 40 26 16 14 12 39 78 38 31 41 44 36 72 60 40 12 12 9 13 15 13 7 2 14 10 8 11 32 20 19 16 21 29 26 21 31
37 35 36 35 34 33 32 32 32 32 32 32 33 33 32 34 41 42 7 9 8 20 15 9 30 63 44 44 54 62 46 57 35 14 13 14 26 8 3 5 17 30 20 37 12 9 15 11 13 15 29 17 18 31
37 35 35 34 32 32 31 31 31 32 33 33 34 32 31 32 37 31 15 5 5 12 9 15 15 19 22 40 43 56 55 45 35 18 21 28 16 12 5 8 3 31 30 20 29 16 25 23 15 20 23 22 40 40
33 34 33 32 32 31 30 30 30 33 34 33 34 34 35 38 41 45 21 11 22 21 11 8 9 20 15 15 21 43 41 46 35 28 21 10 20 16 8 8 16 33 27 25 25 35 18 34 37 41 43 43 38 36
31 32 31 32 31 31 28 28 30 34 31 30 34 32 38 19 9 10 15 16 17 18 12 12 11 8 15 22 16 35 27 9 18 13 20 11 8 6 15 20 43 37 29 33 8 18 27 35 39 29 20 28 35 32
32 32 32 31 30 28 26 25 30 30 23 21 27 5 7 9 19 24 13 11 10 18 21 15 28 20 31 25 12 21 11 2 8 10 24 13 7 38 46 47 51 45 24 10 30 26 38 42 47 41 42 44 38 35
32 31 30 29 26 23 20 23 26 22 10 13 9 10 20 20 11 12 13 18 22 12 22 30 58 33 33 17 6 4 3 6 6 8 11 6 6 17 40 55 38 41 42 45 45 45 46 49 44 45 46 43 36 29
32 30 28 25 22 19 19 22 22 15 13 15 24 34 23 8 15 14 9 13 14 16 16 27 34 44 18 21 10 15 8 3 10 11 6 7 7 24 35 37 35 37 36 45 46 49 47 49 43 38 31 24 16 12
30 27 26 23 22 20 20 21 20 18 19 5 6 8 10 13 5 10 13 13 8 16 29 36 17 30 28 24 16 11 15 13 21 4 6 7 26 32 33 27 30 27 31 38 40 38 34 32 28 23 21 16 13 18
27 26 25 23 22 21 19 17 17 15 7 6 9 9 9 11 13 8 15 19 48 33 35 32 21 15 16 15 9 11 8 1 10 10 6 7 31 37 26 27 25 33 37 36 36 34 34 33 37 39 39 35 28 22
26 25 26 25 22 20 18 14 14 8 6 9 13 9 13 28 48 21 29 30 43 36 27 19 16 9 6 8 4 5 6 12 9 5 4 16 24 20 23 28 30 31 29 32 36 37 37 34 31 28 23 20 14 9
24 24 30 23 21 19 15 11 11 7 9 11 17 17 28 28 27 34 34 33 39 47 27 16 6 3 5 6 13 8 5 6 6 7 27 28 24 25 30 29 27 25 28 34 35 31 29 28 23 16 11 8 9 14
27 23 16 13 20 18 12 8 7 12 13 13 17 35 48 45 35 33 42 37 39 37 6 8 7 5 4 8 3 10 7 5 33 34 23 24 28 30 27 23 21 28 33 27 22 22 20 12 18 18 15 17 13 21
33 23 12 20 21 15 13 12 9 13 21 31 30 42 48 48 43 37 34 30 21 18 16 6 12 7 2 7 5 5 15 37 36 33 30 28 31 27 20 28 29 25 21 21 14 11 15 20 15 15 17 16 13 25
29 22 21 17 27 15 9 13 17 12 18 36 40 48 51 55 49 27 45 34 27 18 15 12 10 6 5 9 16 31 32 34 38 35 32 24 19 22 24 21 16 14 9 5 13 12 12 21 17 18 22 27 22 23
32 31 26 14 24 8 9 12 24 16 18 23 38 45 48 48 41 27 48 17 19 10 14 8 5 5 10 23 29 33 36 38 35 29 21 18 19 12 7 3 12 4 6 5 6 13 16 17 14 22 23 24 25 27
18 14 13 9 9 16 11 12 12 22 26 23 36 32 25 23 7 10 12 19 15 10 8 13 20 23 26 31 35 40 30 17 14 14 19 15 15 17 16 13 11 14 23 19 18 22 20 15 17 19 20 24 24 20
11 11 9 12 6 9 15 19 17 22 18 29 43 27 19 9 9 8 10 19 9 6 6 18 30 34 36 26 20 10 13 17 21 23 18 14 13 17 18 14 12 19 22 20 19 16 16 21 22 16 22 21 25 27
13 9 13 12 12 11 18 18 16 13 9 14 14 7 6 8 7 8 12 8 6 17 29 38 37 29 18 16 25 22 15 9 18 18 20 14 14 17 17 14 11 10 13 15 14 15 18 21 23 23 23 26 30 30
17 9 10 13 24 12 12 10 14 12 10 2 9 4 5 6 5 7 7 6 18 31 41 36 24 15 16 15 8 18 19 11 16 12 11 19 18 10 6 5 8 13 12 9 12 15 19 22 26 26 28 31 32 32
8 13 12 16 17 15 10 9 22 8 7 6 2 4 3 5 3 2 5 12 34 39 32 26 16 14 16 18 18 15 20 20 15 20 14 9 8 19 22 19 13 15 13 15 14 16 19 24 25 27 28 32 33 32
11 13 15 14 15 10 9 7 6 9 10 11 6 7 4 3 4 5 5 27 34 28 24 31 31 25 5 8 22 15 3 10 10 19 14 11 11 12 10 9 14 18 23 11 13 15 20 21 23 30 29 29 30 30
9 11 11 13 9 10 11 9 8 7 8 4 6 6 4 5 4 5 22 31 42 43 42 31 12 4 5 16 14 10 13 14 9 14 11 8 7 9 11 5 4 11 13 9 12 17 18 19 24 25 28 28 29 30
15 9 7 10 7 4 7 5 5 4 6 12 4 4 3 3 2 15 20 44 43 47 25 11 4 9 16 13 11 13 11 5 7 7 5 6 11 10 8 8 9 16 10 7 15 15 14 17 20 21 26 26 28 28
11 3 5 4 5 5 5 4 5 4 4 9 4 3 2 4 8 16 29 45 43 26 18 11 15 11 15 13 11 7 6 8 12 9 9 10 6 13 8 7 10 12 12 16 22 21 23 24 21 23 23 25 30 30
9 7 4 2 3 4 6 7 4 9 7 8 17 29 30 24 22 38 49 44 31 21 15 14 13 15 11 20 14 11 9 8 11 11 10 7 7 7 8 9 11 12 13 13 14 18 22 24 22 23 25 27 30 32
7 6 4 1 3 5 9 19 23 25 34 40 38 37 33 31 39 29 22 17 9 13 16 14 12 10 8 8 11 17 16 11 7 3 11 5 5 10 7 7 11 10 11 14 14 19 20 23 24 26 28 28 29 33
11 8 8 3 4 20 16 21 32 34 35 37 37 38 34 23 15 12 13 17 18 14 16 12 10 11 6 1 5 12 14 14 1 20 12 12 12 6 5 6 9 7 11 12 18 19 19 21 24 26 27 30 32 32
16 20 16 19 18 23 32 32 31 28 26 28 29 27 23 15 7 14 15 10 14 15 17 12 12 16 16 13 8 6 11 6 17 17 21 19 10 6 9 4 11 10 10 13 19 19 19 22 26 26 27 30 32 33
Wind_Direction_500mb
286 292 298 299 299 300 302 306 311 316 322 327 330 335 336 338 336 330 325 18 352 300 288 281 268 308 309 284 327 330 325 245 181 178 213 242 42 305 40 272 203 176 179 221 261 263 330 36 330 340 208 154 172 194
281 286 291 296 298 299 299 300 303 308 314 319 324 328 332 333 333 326 313 310 298 274 262 279 274 269 256 260 259 248 253 235 212 125 123 248 354 330 248 285 323 181 58 153 141 160 210 101 219 282 13 62 351 295
279 282 286 291 295 297 298 297 299 302 307 311 317 321 324 328 329 323 316 327 330 298 304 275 278 309 292 271 269 230 244 218 186 205 190 158 115 133 272 255 123 23 10 102 50 258 239 245 3 294 259 300 230 311
273 279 283 287 292 293 295 295 296 300 301 304 310 315 318 321 321 316 307 310 295 281 273 277 285 284 245 239 239 233 233 230 269 290 242 196 158 162 249 257 31 93 144 153 233 301 294 287 264 269 195 167 211 297
268 275 279 282 288 289 290 292 293 295 300 303 305 308 313 316 317 313 309 302 260 226 296 304 306 290 266 246 234 230 230 236 240 228 225 244 236 162 213 117 113 237 169 181 223 207 214 258 244 208 163 140 147 145
266 270 275 280 286 286 288 289 289 294 297 301 303 304 307 313 315 330 6 29 151 253 275 308 289 288 268 235 234 239 238 229 213 212 232 241 242 128 199 212 222 256 213 203 136 194 260 280 277 223 203 124 134 116
261 260 271 277 284 286 286 287 289 294 297 299 300 299 298 298 297 291 254 211 300 289 288 292 284 282 309 251 242 232 228 223 217 216 223 254 281 169 143 243 245 287 261 248 237 219 224 235 204 177 213 181 141 128
257 258 267 275 281 285 286 285 290 295 299 302 299 294 290 288 287 290 288 269 243 264 250 277 274 287 291 202 226 219 212 219 216 225 263 212 240 211 245 287 322 340 300 198 189 199 160 133 143 126 140 132 128 132
256 258 264 271 280 283 284 285 294 299 304 304 298 300 295 285 252 310 333 268 254 230 287 257 263 277 3 359 296 230 223 175 210 209 229 234 237 227 26 45 46 40 60 351 67 189 171 167 134 129 136 138 146 146
255 260 265 271 277 279 278 286 299 308 314 314 310 303 241 168 268 270 276 212 223 218 227 249 259 265 312 312 329 347 34 37 359 228 220 197 128 51 52 58 56 54 67 129 122 101 131 126 134 130 129 138 134 124
257 260 265 266 271 273 273 290 305 321 16 341 314 285 294 302 277 223 234 194 200 223 213 231 230 243 255 254 230 237 296 181 181 258 336 280 77 57 61 57 45 46 65 84 102 116 126 131 121 116 104 101 101 99
253 258 259 259 263 257 268 288 298 291 283 279 293 296 301 269 228 243 219 211 228 218 241 214 220 210 220 226 225 174 192 195 231 143 140 127 109 75 79 67 49 45 58 76 84 92 97 99 95 94 90 85 75 64
251 252 249 245 249 251 267 282 289 296 303 281 257 260 240 236 277 239 234 248 211 269 5 344 321 267 204 216 234 181 190 211 130 109 96 38 104 91 87 69 62 64 71 78 79 80 79 77 78 77 86 84 67 48
242 245 239 241 241 248 261 271 288 310 309 260 243 247 236 217 220 237 293 317 328 317 316 317 314 291 227 170 242 191 244 296 220 110 108 75 81 95 86 74 86 89 87 85 82 77 72 65 65 62 63 65 56 45
239 241 238 237 241 245 251 253 284 305 276 258 247 239 238 257 297 335 337 323 319 314 335 319 256 261 305 293 233 337 230 73 49 73 75 98 106 98 94 104 107 98 93 87 79 75 73 69 65 61 54 49 49 17
237 244 237 233 226 232 225 242 286 259 256 241 238 257 295 303 310 327 330 320 333 319 282 228 284 323 58 14 296 353 63 84 122 91 138 141 131 128 132 131 115 100 91 88 83 74 68 60 46 40 25 23 355 345
221 227 244 235 221 207 208 220 237 223 244 244 235 240 248 271 284 319 326 324 315 298 254 181 187 87 312 209 65 357 26 74 115 128 142 135 144 135 130 116 99 101 106 87 65 61 64 45 32 25 27 5 360 341
211 213 216 192 188 183 208 223 252 251 246 252 268 278 289 296 303 311 323 321 325 305 300 359 329 82 7 132 141 105 78 97 116 132 133 136 136 129 112 111 108 95 81 67 69 68 53 36 26 7 30 26 5 338
204 196 176 170 167 186 218 225 213 262 261 259 263 264 266 276 283 283 313 313 329 331 339 30 44 38 40 62 92 112 125 129 129 128 129 128 119 113 113 104 89 81 113 102 98 87 55 27 54 41 20 357 3 348
212 206 180 187 194 227 261 241 199 239 259 270 279 271 259 254 265 290 300 326 3 56 36 41 35 28 100 123 143 142 138 134 123 120 125 125 118 115 91 139 148 312 316 238 152 62 37 21 18 19 7 355 359 353
150 134 158 157 210 228 269 289 265 268 279 267 259 262 288 227 141 6 346 24 58 34 55 36 70 97 113 120 123 121 117 99 102 110 136 134 121 127 119 84 57 49 69 66 54 29 23 17 13 13 354 345 352 8
172 172 183 219 252 244 251 239 246 291 286 268 298 269 276 158 134 88 84 50 53 35 88 112 110 114 109 114 123 121 109 111 104 99 111 130 130 115 98 59 48 54 51 44 38 18 12 353 345 351 346 1 350 342
147 210 210 218 226 245 258 230 242 243 261 293 296 231 174 82 91 88 81 82 99 131 134 126 119 101 89 117 116 110 101 91 101 88 83 100 118 89 78 74 65 80 58 36 21 14 3 7 12 15 358 350 346 344
155 193 238 212 207 247 254 239 232 244 264 276 323 32 65 77 70 72 95 99 142 136 136 125 111 107 120 106 77 82 85 95 105 89 66 75 103 86 99 106 106 98 95 61 18 1 356 359 354 351 352 349 345 342
204 236 227 242 223 214 241 245 223 247 245 164 172 207 121 115 102 75 117 141 159 149 146 140 120 115 109 105 88 92 65 73 105 103 70 66 53 71 92 92 105 84 53 22 6 354 356 351 351 350 347 342 340 342
240 226 215 219 226 220 235 272 352 325 241 163 185 132 111 100 146 134 112 163 163 163 162 157 151 147 108 43 105 86 93 101 98 110 92 76 85 72 67 55 59 44 16 22 351 355 351 349 349 344 342 342 343 345
247 250 254 262 286 314 311 329 320 290 320 68 120 137 158 176 165 134 136 161 157 163 144 148 145 228 134 109 96 91 69 92 117 112 121 124 117 76 89 36 325 333 354 333 338 346 342 343 346 342 343 342 345 345
245 271 265 323 329 304 291 290 290 312 333 338 347 53 66 34 171 174 171 175 169 151 153 142 62 61 124 101 121 107 70 32 73 61 259 155 130 98 58 26 14 6 350 325 350 342 331 335 334 335 334 338 342 341
243 210 199 280 273 264 240 268 296 273 286 325 29 86 113 53 127 146 161 155 152 151 153 135 132 131 133 133 122 95 108 122 85 83 72 86 37 23 13 6 355 350 344 345 344 351 359 1 357 345 345 341 333 334
239 191 162 255 281 262 252 220 268 319 293 163 113 115 104 112 139 140 138 141 148 152 147 153 161 176 173 170 148 130 127 130 131 127 86 52 2 322 330 357 353 332 341 338 335 335 337 342 338 340 340 340 344 345
164 140 134 185 317 22 113 123 108 97 98 108 116 112 116 124 132 136 137 147 161 144 156 163 133 120 128 128 106 150 134 120 117 110 197 172 316 293 311 26 329 332 337 338 345 340 342 346 348 347 347 349 351 349
165 158 136 117 217 170 136 129 121 115 113 112 115 121 131 133 128 169 168 166 166 153 137 152 160 133 112 263 238 186 164 166 11 351 359 341 303 298 106 347 323 349 339 352 348 344 348 343 346 348 349 351 348 345
157 186 226 153 153 157 142 128 119 123 131 141 152 151 147 134 114 155 167 195 180 168 165 156 148 167 168 141 161 195 226 303 332 348 359 12 34 108 121 46 26 21 4 360 349 347 343 344 345 346 351 351 345 338
Wind_Speed_850mb
32 32 32 32 32 32 32 33 33 32 33 35 34 33 35 35 33 32 4 14 23 25 62 59 27 30 28 17 6 9 4 2 6 7 8 16 5 1 6 7 8 15 13 10 9 1 10 20 8 20 8 38 37 33
34 33 32 33 32 32 32 33 32 32 33 34 35 34 33 35 36 37 33 22 23 23 45 53 60 60 56 52 36 14 5 3 12 5 2 6 5 7 7 5 12 6 5 2 4 8 6 9 3 9 20 14 11 28
34 34 33 35 34 32 32 33 33 32 32 33 34 36 34 33 35 39 45 37 29 23 50 41 36 26 39 39 61 31 19 24 9 5 8 5 7 3 7 10 2 14 4 7 4 13 37 19 5 8 16 6 6 65
37 35 34 35 35 33 32 32 33 32 32 32 33 35 37 36 36 38 45 35 25 17 14 24 35 40 27 33 27 69 63 32 17 22 16 8 7 17 13 12 4 3 14 10 6 22 30 35 21 12 15 17 25 34
35 36 36 36 34 34 32 32 33 32 32 32 32 33 35 38 42 41 40 26 16 14 12 39 78 38 31 41 44 36 72 60 40 12 12 9 13 15 13 7 2 14 10 8 11 32 20 19 16 21 29 26 21 31
37 35 36 35 34 33 32 32 32 32 32 32 33 33 32 34 41 42 7 9 8 20 15 9 30 63 44 44 54 62 46 57 35 14 13 14 26 8 3 5 17 30 20 37 12 9 15 11 13 15 29 17 18 31
37 35 35 34 32 32 31 31 31 32 33 33 34 32 31 32 37 31 15 5 5 12 9 15 15 19 22 40 43 56 55 45 35 18 21 28 16 12 5 8 3 31 30 20 29 16 25 23 15 20 23 22 40 40
33 34 33 32 32 31 30 30 30 33 34 33 34 34 35 38 41 45 21 11 22 21 11 8 9 20 15 15 21 43 41 46 35 28 21 10 20 16 8 8 16 33 27 25 25 35 18 34 37 41 43 43 38 36
31 32 31 32 31 31 28 28 30 34 31 30 34 32 38 19 9 10 15 16 17 18 12 12 11 8 15 22 16 35 27 9 18 13 20 11 8 6 15 20 43 37 29 33 8 18 27 35 39 29 20 28 35 32
32 32 32 31 30 28 26 25 30 30 23 21 27 5 7 9 19 24 13 11 10 18 21 15 28 20 31 25 12 21 11 2 8 10 24 13 7 38 46 47 51 45 24 10 30 26 38 42 47 41 42 44 38 35
32 31 30 29 26 23 20 23 26 22 10 13 9 10 20 20 11 12 13 18 22 12 22 30 58 33 33 17 6 4 3 6 6 8 11 6 6 17 40 55 38 41 42 45 45 45 46 49 44 45 46 43 36 29
32 30 28 25 22 19 19 22 22 15 13 15 24 34 23 8 15 14 9 13 14 16 16 27 34 44 18 21 10 15 8 3 10 11 6 7 7 24 35 37 35 37 36 45 46 49 47 49 43 38 31 24 16 12
30 27 26 23 22 20 20 21 20 18 19 5 6 8 10 13 5 10 13 13 8 16 29 36 17 30 28 24 16 11 15 13 21 4 6 7 26 32 33 27 30 27 31 38 40 38 34 32 28 23 21 16 13 18
27 26 25 23 22 21 19 17 17 15 7 6 9 9 9 11 13 8 15 19 48 33 35 32 21 15 16 15 9 11 8 1 10 10 6 7 31 37 26 27 25 33 37 36 36 34 34 33 37 39 39 35 28 22
26 25 26 25 22 20 18 14 14 8 6 9 13 9 13 28 48 21 29 30 43 36 27 19 16 9 6 8 4 5 6 12 9 5 4 16 24 20 23 28 30 31 29 32 36 37 37 34 31 28 23 20 14 9
24 24 30 23 21 19 15 11 11 7 9 11 17 17 28 28 27 34 34 33 39 47 27 16 6 3 5 6 13 8 5 6 6 7 27 28 24 25 30 29 27 25 28 34 35 31 29 28 23 16 11 8 9 14
27 23 16 13 20 18 12 8 7 12 13 13 17 35 48 45 35 33 42 37 39 37 6 8 7 5 4 8 3 10 7 5 33 34 23 24 28 30 27 23 21 28 33 27 22 22 20 12 18 18 15 17 13 21
33 23 12 20 21 15 13 12 9 13 21 31 30 42 48 48 43 37 34 30 21 18 16 6 12 7 2 7 5 5 15 37 36 33 30 28 31 27 20 28 29 25 21 21 14 11 15 20 15 15 17 16 13 25
29 22 21 17 27 15 9 13 17 12 18 36 40 48 51 55 49 27 45 34 27 18 15 12 10 6 5 9 16 31 32 34 38 35 32 24 19 22 24 21 16 14 9 5 13 12 12 21 17 18 22 27 22 23
32 31 26 14 24 8 9 12 24 16 18 23 38 45 48 48 41 27 48 17 19 10 14 8 5 5 10 23 29 33 36 38 35 29 21 18 19 12 7 3 12 4 6 5 6 13 16 17 14 22 23 24 25 27
18 14 13 9 9 16 11 12 12 22 26 23 36 32 25 23 7 10 12 19 15 10 8 13 20 23 26 31 35 40 30 17 14 14 19 15 15 17 16 13 11 14 23 19 18 22 20 15 17 19 20 24 24 20
11 11 9 12 6 9 15 19 17 22 18 29 43 27 19 9 9 8 10 19 9 6 6 18 30 34 36 26 20 10 13 17 21 23 18 14 13 17 18 14 12 19 22 20 19 16 16 21 22 16 22 21 25 27
13 9 13 12 12 11 18 18 16 13 9 14 14 7 6 8 7 8 12 8 6 17 29 38 37 29 18 16 25 22 15 9 18 18 20 14 14 17 17 14 11 10 13 15 14 15 18 21 23 23 23 26 30 30
17 9 10 13 24 12 12 10 14 12 10 2 9 4 5 6 5 7 7 6 18 31 41 36 24 15 16 15 8 18 19 11 16 12 11 19 18 10 6 5 8 13 12 9 12 15 19 22 26 26 28 31 32 32
8 13 12 16 17 15 10 9 22 8 7 6 2 4 3 5 3 2 5 12 34 39 32 26 16 14 16 18 18 15 20 20 15 20 14 9 8 19 22 19 13 15 13 15 14 16 19 24 25 27 28 32 33 32
11 13 15 14 15 10 9 7 6 9 10 11 6 7 4 3 4 5 5 27 34 28 24 31 31 25 5 8 22 15 3 10 10 19 14 11 11 12 10 9 14 18 23 11 13 15 20 21 23 30 29 29 30 30
9 11 11 13 9 10 11 9 8 7 8 4 6 6 4 5 4 5 22 31 42 43 42 31 12 4 5 16 14 10 13 14 9 14 11 8 7 9 11 5 4 11 13 9 12 17 18 19 24 25 28 28 29 30
15 9 7 10 7 4 7 5 5 4 6 12 4 4 3 3 2 15 20 44 43 47 25 11 4 9 16 13 11 13 11 5 7 7 5 6 11 10 8 8 9 16 10 7 15 15 14 17 20 21 26 26 28 28
11 3 5 4 5 5 5 4 5 4 4 9 4 3 2 4 8 16 29 45 43 26 18 11 15 11 15 13 11 7 6 8 12 9 9 10 6 13 8 7 10 12 12 16 22 21 23 24 21 23 23 25 30 30
9 7 4 2 3 4 6 7 4 9 7 8 17 29 30 24 22 38 49 44 31 21 15 14 13 15 11 20 14 11 9 8 11 11 10 7 7 7 8 9 11 12 13 13 14 18 22 24 22 23 25 27 30 32
7 6 4 1 3 5 9 19 23 25 34 40 38 37 33 31 39 29 22 17 9 13 16 14 12 10 8 8 11 17 16 11 7 3 11 5 5 10 7 7 11 10 11 14 14 19 20 23 24 26 28 28 29 33
11 8 8 3 4 20 16 21 32 34 35 37 37 38 34 23 15 12 13 17 18 14 16 12 10 11 6 1 5 12 14 14 1 20 12 12 12 6 5 6 9 7 11 12 18 19 19 21 24 26 27 30 32 32
16 20 16 19 18 23 32 32 31 28 26 28 29 27 23 15 7 14 15 10 14 15 17 12 12 16 16 13 8 6 11 6 17 17 21 19 10 6 9 4 11 10 10 13 19 19 19 22 26 26 27 30 32 33
Wind_Direction_850mb
286 292 298 299 299 300 302 306 311 316 322 327 330 335 336 338 336 330 325 18 352 300 288 281 268 308 309 284 327 330 325 245 181 178 213 242 42 305 40 272 203 176 179 221 261 263 330 36 330 340 208 154 172 194
281 286 291 296 298 299 299 300 303 308 314 319 324 328 332 333 333 326 313 310 298 274 262 279 274 269 256 260 259 248 253 235 212 125 123 248 354 330 248 285 323 181 58 153 141 160 210 101 219 282 13 62 351 295
279 282 286 291 295 297 298 297 299 302 307 311 317 321 324 328 329 323 316 327 330 298 304 275 278 309 292 271 269 230 244 218 186 205 190 158 115 133 272 255 123 23 10 102 50 258 239 245 3 294 259 300 230 311
273 279 283 287 292 293 295 295 296 300 301 304 310 315 318 321 321 316 307 310 295 281 273 277 285 284 245 239 239 233 233 230 269 290 242 196 158 162 249 257 31 93 144 153 233 301 294 287 264 269 195 167 211 297
268 275 279 282 288 289 290 292 293 295 300 303 305 308 313 316 317 313 309 302 260 226 296 304 306 290 266 246 234 230 230 236 240 228 225 244 236 162 213 117 113 237 169 181 223 207 214 258 244 208 163 140 147 145
266 270 275 280 286 286 288 289 289 294 297 301 303 304 307 313 315 330 6 29 151 253 275 308 289 288 268 235 234 239 238 229 213 212 232 241 242 128 199 212 222 256 213 203 136 194 260 280 277 223 203 124 134 116
261 260 271 277 284 286 286 287 289 294 297 299 300 299 298 298 297 291 254 211 300 289 288 292 284 282 309 251 242 232 228 223 217 216 223 254 281 169 143 243 245 287 261 248 237 219 224 235 204 177 213 181 141 128
257 258 267 275 281 285 286 285 290 295 299 302 299 294 290 288 287 290 288 269 243 264 250 277 274 287 291 202 226 219 212 219 216 225 263 212 240 211 245 287 322 340 300 198 189 199 160 133 143 126 140 132 128 132
256 258 264 271 280 283 284 285 294 299 304 304 298 300 295 285 252 310 333 268 254 230 287 257 263 277 3 359 296 230 223 175 210 209 229 234 237 227 26 45 46 40 60 351 67 189 171 167 134 129 136 138 146 146
255 260 265 271 277 279 278 286 299 308 314 314 310 303 241 168 268 270 276 212 223 218 227 249 259 265 312 312 329 347 34 37 359 228 220 197 128 51 52 58 56 54 67 129 122 101 131 126 134 130 129 138 134 124
257 260 265 266 271 273 273 290 305 321 16 341 314 285 294 302 277 223 234 194 200 223 213 231 230 243 255 254 230 237 296 181 181 258 336 280 77 57 61 57 45 46 65 84 102 116 126 131 121 116 104 101 101 99
253 258 259 259 263 257 268 288 298 291 283 279 293 296 301 269 228 243 219 211 228 218 241 214 220 210 220 226 225 174 192 195 231 143 140 127 109 75 79 67 49 45 58 76 84 92 97 99 95 94 90 85 75 64
251 252 249 245 249 251 267 282 289 296 303 281 257 260 240 236 277 239 234 248 211 269 5 344 321 267 204 216 234 181 190 211 130 109 96 38 104 91 87 69 62 64 71 78 79 80 79 77 78 77 86 84 67 48
242 245 239 241 241 248 261 271 288 310 309 260 243 247 236 217 220 237 293 317 328 317 316 317 314 291 227 170 242 191 244 296 220 110 108 75 81 95 86 74 86 89 87 85 82 77 72 65 65 62 63 65 56 45
239 241 238 237 241 245 251 253 284 305 276 258 247 239 238 257 297 335 337 323 319 314 335 319 256 261 305 293 233 337 230 73 49 73 75 98 106 98 94 104 107 98 93 87 79 75 73 69 65 61 54 49 49 17
237 244 237 233 226 232 225 242 286 259 256 241 238 257 295 303 310 327 330 320 333 319 282 228 284 323 58 14 296 353 63 84 122 91 138 141 131 128 132 131 115 100 91 88 83 74 68 60 46 40 25 23 355 345
221 227 244 235 221 207 208 220 237 223 244 244 235 240 248 271 284 319 326 324 315 298 254 181 187 87 312 209 65 357 26 74 115 128 142 135 144 135 130 116 99 101 106 87 65 61 64 45 32 25 27 5 360 341
211 213 216 192 188 183 208 223 252 251 246 252 268 278 289 296 303 311 323 321 325 305 300 359 329 82 7 132 141 105 78 97 116 132 133 136 136 129 112 111 108 95 81 67 69 68 53 36 26 7 30 26 5 338
204 196 176 170 167 186 218 225 213 262 261 259 263 264 266 276 283 283 313 313 329 331 339 30 44 38 40 62 92 112 125 129 129 128 129 128 119 113 113 104 89 81 113 102 98 87 55 27 54 41 20 357 3 348
212 206 180 187 194 227 261 241 199 239 259 270 279 271 259 254 265 290 300 326 3 56 36 41 35 28 100 123 143 142 138 134 123 120 125 125 118 115 91 139 148 312 316 238 152 62 37 21 18 19 7 355 359 353
150 134 158 157 210 228 269 289 265 268 279 267 259 262 288 227 141 6 346 24 58 34 55 36 70 97 113 120 123 121 117 99 102 110 136 134 121 127 119 84 57 49 69 66 54 29 23 17 13 13 354 345 352 8
172 172 183 219 252 244 251 239 246 291 286 268 298 269 276 158 134 88 84 50 53 35 88 112 110 114 109 114 123 121 109 111 104 99 111 130 130 115 98 59 48 54 51 44 38 18 12 353 345 351 346 1 350 342
147 210 210 218 226 245 258 230 242 243 261 293 296 231 174 82 91 88 81 82 99 131 134 126 119 101 89 117 116 110 101 91 101 88 83 100 118 89 78 74 65 80 58 36 21 14 3 7 12 15 358 350 346 344
155 193 238 212 207 247 254 239 232 244 264 276 323 32 65 77 70 72 95 99 142 136 136 125 111 107 120 106 77 82 85 95 105 89 66 75 103 86 99 106 106 98 95 61 18 1 356 359 354 351 352 349 345 342
204 236 227 242 223 214 241 245 223 247 245 164 172 207 121 115 102 75 117 141 159 149 146 140 120 115 109 105 88 92 65 73 105 103 70 66 53 71 92 92 105 84 53 22 6 354 356 351 351 350 347 342 340 342
240 226 215 219 226 220 235 272 352 325 241 163 185 132 111 100 146 134 112 163 163 163 162 157 151 147 108 43 105 86 93 101 98 110 92 76 85 72 67 55 59 44 16 22 351 355 351 349 349 344 342 342 343 345
247 250 254 262 286 314 311 329 320 290 320 68 120 137 158 176 165 134 136 161 157 163 144 148 145 228 134 109 96 91 69 92 117 112 121 124 117 76 89 36 325 333 354 333 338 346 342 343 346 342 343 342 345 345
245 271 265 323 329 304 291 290 290 312 333 338 347 53 66 34 171 174 171 175 169 151 153 142 62 61 124 101 121 107 70 32 73 61 259 155 130 98 58 26 14 6 350 325 350 342 331 335 334 335 334 338 342 341
243 210 199 280 273 264 240 268 296 273 286 325 29 86 113 53 127 146 161 155 152 151 153 135 132 131 133 133 122 95 108 122 85 83 72 86 37 23 13 6 355 350 344 345 344 351 359 1 357 345 345 341 333 334
239 191 162 255 281 262 252 220 268 319 293 163 113 115 104 112 139 140 138 141 148 152 147 153 161 176 173 170 148 130 127 130 131 127 86 52 2 322 330 357 353 332 341 338 335 335 337 342 338 340 340 340 344 345
164 140 134 185 317 22 113 123 108 97 98 108 116 112 116 124 132 136 137 147 161 144 156 163 133 120 128 128 106 150 134 120 117 110 197 172 316 293 311 26 329 332 337 338 345 340 342 346 348 347 347 349 351 349
165 158 136 117 217 170 136 129 121 115 113 112 115 121 131 133 128 169 168 166 166 153 137 152 160 133 112 263 238 186 164 166 11 351 359 341 303 298 106 347 323 349 339 352 348 344 348 343 346 348 349 351 348 345
157 186 226 153 153 157 142 128 119 123 131 141 152 151 147 134 114 155 167 195 180 168 165 156 148 167 168 141 161 195 226 303 332 348 359 12 34 108 121 46 26 21 4 360 349 347 343 344 345 346 351 351 345 338